Weather in Yevdokimovskaya

Russia / Arkhangel'skaya Oblast'     62°24′23″N   43°53′15″E
temp.,
°C
wind,
m/s
gust,
m/s
humid.,
%
clouds,
%
prec.,
mm/h
press.,
hPa
HPBL,
m
21 june, mon
mon2100:00+15se26799 0.0 1016125
03:00+14sse229339 0.0 101626
06:00+22w265957 0.0 1015266
09:00+28w35427 0.0 10151007
12:00+31w463529 0.0 10152329
15:00+31nw3634100 0.0 10152604
18:00+27nw1147100 0.0 101513
21:00+25ese115212 0.0 101611
22 june, tue
tue2200:00+20sse226864 0.0 101617
03:00+20s22621 0.0 101729
06:00+24wsw24560 0.0 1017202
09:00+29wsw35392 0.0 1017787
12:00+33wsw462958 0.0 10162968
15:00+34w362749 0.0 10163071
18:00+33wnw353278 0.0 10151887
21:00+24nw386081 0.1 1016262
23 june, wed
wed2300:00+20sw367292 0.0 1017109
03:00+19sw128293 0.2 101759
06:00+23ssw127195 0.1 1017147
09:00+29sw234749 0.3 1017650
12:00+33sw343410 0.0 10161902
15:00+35sw352831 0.0 10153385
18:00+31sw263795 0.0 1014251
21:00+26sw225744 0.0 101423
24 june, thu
thu2400:00+20wsw228578 0.7 101425
03:00+19wsw24935 2.8 101570
06:00+22w25845 0.0 1014226
09:00+29w34515 0.0 10141033
12:00+31w3541100 0.1 10142489
15:00+29n354899 0.1 1014741
18:00+27nw115481 0.0 101323
21:00+21n258956 0.4 1014206
25 june, fri
fri2500:00+19nw11962 0.0 101312
03:00+18nne2397100 0.0 101388
06:00+19e239090 1.1 1012371
09:00+20ene228895 1.9 1011441
12:00+20w6109286 3.6 1011609
15:00+14nnw4991100 3.8 1014558
18:00+14nnw478283 0.0 1015640
21:00+14n3780100 0.0 1015651